QPF
0.00 0.00 0.00 0.00 0.00 0.00 0.00 0.00 0.00 0.00 0.00 0.01 0.02 0.03 0.07 0.08 0.07 0.07 0.08 0.08 0.06 0.05 0.04 0.03 0.02 0.01 0.01 0.00 0.00 0.00 0.00 0.00 0.00 0.00 0.00 0.00 0.00 0.00 0.00 0.00 0.00 0.00 0.00 0.00
0.00 0.00 0.00 0.00 0.00 0.00 0.00 0.01 0.01 0.00 0.00 0.01 0.02 0.03 0.06 0.09 0.08 0.07 0.08 0.07 0.04 0.03 0.02 0.01 0.01 0.00 0.00 0.00 0.00 0.00 0.00 0.00 0.00 0.00 0.00 0.00 0.00 0.00 0.00 0.00 0.00 0.00 0.00 0.00
0.00 0.00 0.00 0.00 0.00 0.00 0.00 0.01 0.01 0.01 0.00 0.01 0.01 0.03 0.04 0.06 0.06 0.06 0.06 0.04 0.02 0.01 0.01 0.01 0.00 0.00 0.00 0.00 0.00 0.00 0.00 0.00 0.00 0.00 0.00 0.00 0.00 0.00 0.00 0.00 0.00 0.00 0.00 0.00
0.00 0.00 0.00 0.00 0.00 0.00 0.01 0.01 0.01 0.00 0.00 0.01 0.01 0.02 0.04 0.05 0.08 0.06 0.05 0.03 0.01 0.00 0.00 0.00 0.00 0.00 0.00 0.00 0.00 0.00 0.00 0.00 0.00 0.00 0.00 0.00 0.00 0.00 0.00 0.00 0.00 0.00 0.00 0.00
0.00 0.00 0.00 0.00 0.00 0.00 0.00 0.00 0.00 0.01 0.01 0.01 0.00 0.01 0.01 0.03 0.05 0.04 0.03 0.01 0.01 0.00 0.00 0.00 0.00 0.00 0.00 0.00 0.00 0.00 0.00 0.00 0.00 0.00 0.00 0.00 0.00 0.00 0.00 0.00 0.00 0.00 0.00 0.00
0.00 0.00 0.00 0.00 0.00 0.00 0.00 0.00 0.01 0.01 0.01 0.01 0.00 0.00 0.00 0.01 0.01 0.01 0.01 0.01 0.00 0.00 0.00 0.00 0.00 0.00 0.00 0.00 0.00 0.00 0.00 0.00 0.00 0.00 0.00 0.00 0.00 0.00 0.00 0.00 0.00 0.00 0.00 0.00
0.00 0.00 0.00 0.00 0.00 0.00 0.00 0.00 0.01 0.01 0.00 0.00 0.00 0.00 0.00 0.00 0.00 0.00 0.00 0.00 0.00 0.00 0.00 0.00 0.00 0.00 0.00 0.00 0.00 0.00 0.00 0.00 0.00 0.00 0.00 0.00 0.00 0.00 0.00 0.00 0.00 0.00 0.00 0.00
0.00 0.00 0.00 0.00 0.00 0.00 0.00 0.00 0.00 0.00 0.00 0.00 0.00 0.00 0.00 0.00 0.00 0.00 0.00 0.00 0.00 0.00 0.00 0.00 0.00 0.00 0.00 0.00 0.00 0.00 0.00 0.00 0.00 0.00 0.00 0.00 0.00 0.00 0.00 0.00 0.00 0.00 0.00 0.00
0.00 0.00 0.00 0.00 0.00 0.00 0.00 0.00 0.00 0.00 0.00 0.00 0.00 0.00 0.00 0.00 0.00 0.00 0.00 0.00 0.00 0.00 0.00 0.00 0.00 0.00 0.00 0.00 0.00 0.00 0.00 0.00 0.00 0.00 0.00 0.00 0.00 0.00 0.00 0.00 0.00 0.00 0.00 0.00
0.00 0.00 0.00 0.00 0.00 0.00 0.00 0.00 0.00 0.00 0.00 0.00 0.00 0.00 0.00 0.00 0.00 0.00 0.00 0.00 0.00 0.00 0.00 0.00 0.00 0.00 0.00 0.00 0.00 0.00 0.00 0.00 0.00 0.00 0.00 0.00 0.00 0.00 0.00 0.00 0.00 0.00 0.00 0.00
0.00 0.00 0.00 0.00 0.00 0.00 0.00 0.00 0.00 0.00 0.00 0.00 0.00 0.00 0.00 0.00 0.00 0.00 0.00 0.00 0.00 0.00 0.00 0.00 0.00 0.00 0.00 0.00 0.00 0.00 0.00 0.00 0.00 0.00 0.00 0.00 0.00 0.00 0.00 0.00 0.00 0.00 0.00 0.00
0.00 0.00 0.00 0.00 0.00 0.00 0.00 0.00 0.00 0.00 0.00 0.00 0.00 0.00 0.00 0.00 0.00 0.00 0.00 0.00 0.00 0.00 0.00 0.00 0.00 0.00 0.00 0.00 0.00 0.00 0.00 0.00 0.00 0.00 0.00 0.00 0.00 0.00 0.00 0.00 0.00 0.00 0.00 0.00
0.00 0.00 0.00 0.00 0.00 0.00 0.00 0.00 0.00 0.00 0.00 0.00 0.00 0.00 0.00 0.00 0.00 0.00 0.00 0.00 0.00 0.00 0.00 0.00 0.00 0.00 0.00 0.00 0.00 0.00 0.00 0.00 0.00 0.00 0.00 0.00 0.00 0.00 0.00 0.00 0.00 0.00 0.00 0.00
0.00 0.00 0.00 0.00 0.00 0.00 0.00 0.00 0.00 0.00 0.00 0.00 0.00 0.00 0.00 0.00 0.00 0.00 0.00 0.00 0.00 0.00 0.00 0.00 0.00 0.00 0.00 0.00 0.00 0.00 0.00 0.00 0.00 0.00 0.00 0.00 0.00 0.00 0.00 0.00 0.00 0.00 0.00 0.00
0.00 0.00 0.00 0.00 0.00 0.00 0.00 0.00 0.00 0.00 0.00 0.00 0.00 0.00 0.00 0.00 0.00 0.00 0.00 0.00 0.00 0.00 0.00 0.00 0.00 0.00 0.00 0.00 0.00 0.00 0.00 0.00 0.00 0.00 0.00 0.00 0.00 0.00 0.00 0.00 0.00 0.00 0.00 0.00
0.00 0.00 0.00 0.00 0.00 0.00 0.00 0.00 0.00 0.00 0.00 0.00 0.00 0.00 0.00 0.00 0.00 0.00 0.00 0.00 0.00 0.00 0.00 0.00 0.00 0.00 0.00 0.00 0.00 0.00 0.00 0.00 0.00 0.00 0.00 0.00 0.00 0.00 0.00 0.00 0.00 0.00 0.00 0.00
0.00 0.00 0.00 0.00 0.00 0.00 0.00 0.00 0.00 0.00 0.00 0.00 0.00 0.00 0.00 0.00 0.00 0.00 0.00 0.00 0.00 0.00 0.00 0.00 0.00 0.00 0.00 0.00 0.00 0.00 0.00 0.00 0.00 0.00 0.00 0.00 0.00 0.00 0.00 0.00 0.00 0.00 0.00 0.00
0.01 0.00 0.00 0.00 0.00 0.00 0.00 0.00 0.00 0.00 0.00 0.00 0.00 0.00 0.00 0.00 0.00 0.00 0.00 0.00 0.00 0.00 0.00 0.00 0.00 0.00 0.00 0.00 0.00 0.00 0.00 0.00 0.00 0.00 0.00 0.00 0.00 0.00 0.00 0.00 0.00 0.00 0.00 0.00
0.01 0.01 0.00 0.00 0.00 0.00 0.00 0.00 0.00 0.00 0.00 0.00 0.00 0.00 0.00 0.00 0.00 0.00 0.00 0.00 0.00 0.00 0.00 0.00 0.00 0.00 0.00 0.00 0.00 0.00 0.00 0.00 0.00 0.00 0.00 0.00 0.00 0.00 0.00 0.00 0.00 0.00 0.00 0.00
0.00 0.00 0.00 0.00 0.00 0.00 0.00 0.00 0.00 0.00 0.00 0.00 0.00 0.00 0.00 0.00 0.00 0.00 0.00 0.00 0.00 0.00 0.00 0.00 0.00 0.00 0.00 0.00 0.00 0.00 0.00 0.00 0.00 0.00 0.00 0.00 0.00 0.00 0.00 0.00 0.00 0.00 0.00 0.00
0.00 0.00 0.00 0.00 0.00 0.00 0.00 0.00 0.00 0.00 0.00 0.00 0.00 0.00 0.00 0.00 0.00 0.00 0.00 0.00 0.00 0.00 0.00 0.00 0.00 0.00 0.00 0.00 0.00 0.00 0.00 0.00 0.00 0.00 0.00 0.00 0.00 0.00 0.00 0.00 0.00 0.00 0.00 0.00
0.00 0.00 0.00 0.00 0.00 0.00 0.00 0.00 0.00 0.00 0.00 0.00 0.00 0.00 0.00 0.00 0.00 0.00 0.00 0.00 0.00 0.00 0.00 0.00 0.00 0.00 0.00 0.00 0.00 0.00 0.00 0.00 0.00 0.00 0.00 0.00 0.00 0.00 0.00 0.00 0.00 0.00 0.00 0.00
0.00 0.00 0.00 0.00 0.00 0.00 0.00 0.00 0.00 0.00 0.00 0.00 0.00 0.00 0.00 0.00 0.00 0.00 0.00 0.00 0.00 0.00 0.00 0.00 0.00 0.00 0.00 0.00 0.00 0.00 0.00 0.00 0.00 0.00 0.00 0.00 0.00 0.00 0.00 0.00 0.00 0.00 0.00 0.00
0.00 0.00 0.00 0.00 0.00 0.00 0.00 0.00 0.00 0.00 0.00 0.00 0.00 0.00 0.00 0.00 0.00 0.00 0.00 0.00 0.00 0.00 0.00 0.00 0.00 0.00 0.00 0.00 0.00 0.00 0.00 0.00 0.00 0.00 0.00 0.00 0.00 0.00 0.00 0.00 0.00 0.00 0.00 0.00
0.00 0.00 0.00 0.00 0.00 0.00 0.00 0.00 0.00 0.00 0.00 0.00 0.00 0.00 0.00 0.00 0.00 0.00 0.00 0.00 0.00 0.00 0.00 0.00 0.00 0.00 0.00 0.00 0.00 0.00 0.00 0.00 0.00 0.00 0.00 0.00 0.00 0.00 0.00 0.00 0.00 0.00 0.00 0.00
0.00 0.00 0.00 0.00 0.00 0.00 0.00 0.00 0.00 0.00 0.00 0.00 0.00 0.00 0.00 0.00 0.00 0.00 0.00 0.00 0.00 0.00 0.00 0.00 0.00 0.00 0.00 0.00 0.00 0.00 0.00 0.00 0.00 0.00 0.00 0.00 0.00 0.00 0.00 0.00 0.00 0.00 0.00 0.00
MSLP
1013.59 1014.20 1014.56 1014.70 1014.69 1014.63 1014.62 1014.73 1014.98 1015.35 1015.78 1016.19 1016.51 1016.69 1016.70 1016.55 1016.29 1015.98 1015.70 1015.49 1015.38 1015.36 1015.41 1015.49 1015.55 1015.56 1015.52 1015.44 1015.33 1015.25 1015.22 1015.28 1015.42 1015.63 1015.86 1016.07 1016.23 1016.27 1016.21 1016.03 1015.77 1015.46 1015.16 1014.91
1013.70 1014.20 1014.46 1014.54 1014.52 1014.52 1014.62 1014.87 1015.28 1015.80 1016.34 1016.82 1017.14 1017.26 1017.16 1016.87 1016.48 1016.05 1015.68 1015.42 1015.28 1015.27 1015.34 1015.44 1015.52 1015.53 1015.49 1015.40 1015.30 1015.24 1015.27 1015.39 1015.60 1015.88 1016.17 1016.42 1016.58 1016.60 1016.48 1016.23 1015.91 1015.55 1015.22 1014.96
1013.55 1013.93 1014.11 1014.16 1014.18 1014.28 1014.54 1014.99 1015.60 1016.29 1016.95 1017.48 1017.78 1017.80 1017.57 1017.12 1016.56 1015.99 1015.51 1015.18 1015.02 1015.02 1015.12 1015.25 1015.36 1015.41 1015.39 1015.33 1015.25 1015.22 1015.29 1015.46 1015.74 1016.07 1016.41 1016.69 1016.85 1016.85 1016.70 1016.41 1016.04 1015.65 1015.29 1015.02
1013.23 1013.48 1013.59 1013.64 1013.75 1014.00 1014.47 1015.15 1015.98 1016.84 1017.62 1018.18 1018.44 1018.36 1017.95 1017.31 1016.56 1015.83 1015.22 1014.81 1014.62 1014.62 1014.75 1014.94 1015.11 1015.21 1015.23 1015.20 1015.16 1015.17 1015.26 1015.48 1015.79 1016.16 1016.53 1016.83 1017.00 1017.01 1016.84 1016.54 1016.15 1015.74 1015.37 1015.08
1012.90 1013.02 1013.06 1013.14 1013.35 1013.78 1014.47 1015.39 1016.44 1017.48 1018.35 1018.93 1019.12 1018.91 1018.32 1017.47 1016.52 1015.60 1014.86 1014.36 1014.12 1014.13 1014.31 1014.55 1014.78 1014.95 1015.03 1015.04 1015.04 1015.07 1015.18 1015.41 1015.74 1016.13 1016.51 1016.83 1017.01 1017.02 1016.87 1016.58 1016.20 1015.80 1015.43 1015.14
1012.70 1012.69 1012.69 1012.80 1013.12 1013.72 1014.62 1015.75 1016.99 1018.17 1019.11 1019.68 1019.79 1019.43 1018.66 1017.60 1016.45 1015.36 1014.48 1013.90 1013.63 1013.64 1013.85 1014.16 1014.46 1014.70 1014.83 1014.89 1014.91 1014.95 1015.06 1015.28 1015.59 1015.97 1016.35 1016.67 1016.86 1016.90 1016.78 1016.52 1016.18 1015.81 1015.46 1015.17
1012.73 1012.62 1012.57 1012.71 1013.12 1013.86 1014.92 1016.22 1017.59 1018.85 1019.82 1020.35 1020.36 1019.86 1018.92 1017.69 1016.37 1015.14 1014.15 1013.50 1013.21 1013.23 1013.48 1013.84 1014.21 1014.50 1014.69 1014.78 1014.81 1014.84 1014.93 1015.11 1015.38 1015.72 1016.07 1016.38 1016.59 1016.65 1016.57 1016.36 1016.07 1015.75 1015.43 1015.17
1013.00 1012.80 1012.73 1012.88 1013.36 1014.19 1015.35 1016.72 1018.15 1019.42 1020.36 1020.83 1020.74 1020.12 1019.05 1017.69 1016.26 1014.94 1013.90 1013.22 1012.92 1012.96 1013.25 1013.66 1014.08 1014.43 1014.65 1014.75 1014.78 1014.78 1014.82 1014.94 1015.15 1015.43 1015.73 1016.01 1016.21 1016.30 1016.26 1016.11 1015.88 1015.60 1015.34 1015.10
1013.42 1013.18 1013.09 1013.26 1013.76 1014.61 1015.78 1017.15 1018.54 1019.76 1020.63 1021.00 1020.82 1020.11 1018.97 1017.56 1016.10 1014.77 1013.73 1013.06 1012.79 1012.87 1013.20 1013.65 1014.11 1014.48 1014.72 1014.82 1014.82 1014.79 1014.77 1014.81 1014.94 1015.14 1015.38 1015.61 1015.79 1015.89 1015.88 1015.77 1015.59 1015.37 1015.15 1014.94
1013.85 1013.62 1013.53 1013.70 1014.19 1015.01 1016.11 1017.39 1018.67 1019.76 1020.50 1020.78 1020.52 1019.77 1018.63 1017.26 1015.85 1014.59 1013.62 1013.03 1012.82 1012.94 1013.31 1013.79 1014.26 1014.64 1014.87 1014.96 1014.93 1014.84 1014.76 1014.72 1014.76 1014.87 1015.04 1015.21 1015.36 1015.44 1015.44 1015.36 1015.22 1015.05 1014.86 1014.68
1014.13 1013.95 1013.90 1014.07 1014.52 1015.26 1016.23 1017.34 1018.44 1019.36 1019.95 1020.12 1019.82 1019.08 1018.01 1016.76 1015.49 1014.38 1013.55 1013.07 1012.95 1013.13 1013.52 1014.01 1014.47 1014.84 1015.05 1015.11 1015.04 1014.91 1014.76 1014.65 1014.61 1014.64 1014.72 1014.83 1014.93 1014.98 1014.98 1014.91 1014.79 1014.64 1014.47 1014.31
1014.18 1014.10 1014.11 1014.29 1014.69 1015.31 1016.11 1017.01 1017.88 1018.59 1019.03 1019.10 1018.78 1018.11 1017.17 1016.09 1015.03 1014.13 1013.48 1013.15 1013.12 1013.36 1013.76 1014.23 1014.66 1014.98 1015.16 1015.18 1015.08 1014.91 1014.72 1014.55 1014.45 1014.41 1014.42 1014.47 1014.51 1014.53 1014.50 1014.42 1014.30 1014.16 1014.00 1013.84
1014.02 1014.07 1014.16 1014.36 1014.69 1015.18 1015.79 1016.45 1017.08 1017.57 1017.84 1017.83 1017.52 1016.94 1016.18 1015.32 1014.51 1013.84 1013.40 1013.21 1013.28 1013.54 1013.93 1014.36 1014.73 1015.00 1015.12 1015.11 1014.98 1014.79 1014.57 1014.38 1014.23 1014.15 1014.11 1014.10 1014.10 1014.07 1014.01 1013.92 1013.79 1013.63 1013.47 1013.31
1013.76 1013.94 1014.12 1014.33 1014.61 1014.95 1015.36 1015.79 1016.17 1016.46 1016.57 1016.49 1016.20 1015.74 1015.16 1014.53 1013.97 1013.53 1013.27 1013.22 1013.35 1013.63 1013.98 1014.33 1014.63 1014.82 1014.89 1014.84 1014.69 1014.49 1014.28 1014.09 1013.94 1013.83 1013.77 1013.73 1013.69 1013.63 1013.54 1013.42 1013.27 1013.10 1012.92 1012.75
1013.56 1013.86 1014.11 1014.33 1014.54 1014.75 1014.96 1015.16 1015.31 1015.40 1015.37 1015.23 1014.97 1014.61 1014.20 1013.80 1013.45 1013.21 1013.12 1013.16 1013.32 1013.57 1013.86 1014.12 1014.33 1014.44 1014.44 1014.36 1014.22 1014.03 1013.85 1013.68 1013.55 1013.46 1013.40 1013.34 1013.28 1013.19 1013.08 1012.93 1012.76 1012.58 1012.38 1012.19
1013.58 1013.97 1014.25 1014.45 1014.58 1014.65 1014.67 1014.66 1014.60 1014.50 1014.35 1014.15 1013.91 1013.64 1013.38 1013.15 1012.98 1012.90 1012.90 1013.00 1013.17 1013.37 1013.57 1013.73 1013.84 1013.87 1013.83 1013.73 1013.60 1013.45 1013.31 1013.20 1013.11 1013.05 1013.00 1012.95 1012.88 1012.78 1012.65 1012.48 1012.29 1012.08 1011.87 1011.66
1013.90 1014.30 1014.58 1014.72 1014.75 1014.67 1014.51 1014.30 1014.05 1013.79 1013.53 1013.28 1013.04 1012.84 1012.68 1012.57 1012.53 1012.55 1012.62 1012.74 1012.88 1013.01 1013.13 1013.20 1013.22 1013.19 1013.12 1013.02 1012.92 1012.82 1012.74 1012.69 1012.66 1012.64 1012.62 1012.58 1012.51 1012.40 1012.25 1012.07 1011.86 1011.63 1011.40 1011.16
1014.47 1014.83 1015.03 1015.07 1014.97 1014.73 1014.41 1014.02 1013.61 1013.21 1012.85 1012.55 1012.31 1012.14 1012.04 1012.02 1012.05 1012.13 1012.23 1012.34 1012.45 1012.53 1012.57 1012.57 1012.54 1012.48 1012.40 1012.33 1012.27 1012.23 1012.23 1012.24 1012.27 1012.29 1012.30 1012.27 1012.19 1012.07 1011.91 1011.70 1011.47 1011.21 1010.95 1010.68
1015.12 1015.37 1015.45 1015.36 1015.10 1014.70 1014.22 1013.68 1013.13 1012.63 1012.18 1011.83 1011.58 1011.43 1011.37 1011.39 1011.46 1011.57 1011.69 1011.79 1011.87 1011.92 1011.93 1011.90 1011.86 1011.80 1011.76 1011.73 1011.74 1011.77 1011.83 1011.91 1011.98 1012.03 1012.05 1012.02 1011.93 1011.79 1011.59 1011.36 1011.09 1010.80 1010.50 1010.20
1015.65 1015.74 1015.66 1015.40 1014.98 1014.43 1013.80 1013.13 1012.48 1011.89 1011.40 1011.01 1010.74 1010.60 1010.56 1010.60 1010.70 1010.83 1010.96 1011.08 1011.16 1011.21 1011.23 1011.23 1011.21 1011.21 1011.23 1011.27 1011.35 1011.46 1011.58 1011.70 1011.81 1011.87 1011.89 1011.83 1011.72 1011.53 1011.30 1011.01 1010.70 1010.37 1010.03 1009.69
1015.83 1015.75 1015.49 1015.06 1014.49 1013.80 1013.06 1012.30 1011.58 1010.94 1010.41 1010.01 1009.74 1009.60 1009.57 1009.63 1009.75 1009.90 1010.06 1010.20 1010.32 1010.42 1010.49 1010.56 1010.62 1010.71 1010.81 1010.95 1011.11 1011.28 1011.46 1011.61 1011.72 1011.78 1011.77 1011.68 1011.51 1011.28 1010.98 1010.64 1010.27 1009.88 1009.50 1009.11
1015.59 1015.33 1014.91 1014.33 1013.62 1012.83 1012.01 1011.20 1010.45 1009.79 1009.25 1008.85 1008.58 1008.45 1008.44 1008.52 1008.66 1008.83 1009.03 1009.22 1009.40 1009.57 1009.74 1009.90 1010.07 1010.26 1010.47 1010.70 1010.94 1011.18 1011.39 1011.56 1011.67 1011.71 1011.66 1011.51 1011.29 1010.98 1010.61 1010.21 1009.77 1009.33 1008.90 1008.48
1014.93 1014.54 1013.98 1013.28 1012.49 1011.64 1010.78 1009.95 1009.19 1008.55 1008.03 1007.64 1007.39 1007.27 1007.27 1007.36 1007.51 1007.72 1007.95 1008.20 1008.46 1008.72 1008.99 1009.26 1009.55 1009.85 1010.16 1010.48 1010.78 1011.07 1011.31 1011.48 1011.58 1011.58 1011.48 1011.29 1010.99 1010.62 1010.19 1009.71 1009.22 1008.72 1008.24 1007.78
1014.03 1013.54 1012.89 1012.13 1011.30 1010.43 1009.57 1008.76 1008.04 1007.42 1006.93 1006.57 1006.34 1006.22 1006.22 1006.32 1006.48 1006.70 1006.97 1007.27 1007.58 1007.92 1008.28 1008.65 1009.03 1009.42 1009.81 1010.20 1010.55 1010.87 1011.12 1011.30 1011.37 1011.35 1011.21 1010.96 1010.62 1010.18 1009.69 1009.16 1008.61 1008.06 1007.54 1007.06
1013.13 1012.59 1011.91 1011.13 1010.30 1009.45 1008.63 1007.87 1007.19 1006.62 1006.17 1005.83 1005.60 1005.49 1005.48 1005.56 1005.71 1005.93 1006.20 1006.51 1006.86 1007.24 1007.65 1008.08 1008.52 1008.96 1009.40 1009.82 1010.20 1010.53 1010.79 1010.95 1011.01 1010.97 1010.80 1010.53 1010.15 1009.68 1009.15 1008.57 1007.98 1007.40 1006.85 1006.35
1012.47 1011.93 1011.26 1010.51 1009.72 1008.93 1008.17 1007.47 1006.85 1006.33 1005.90 1005.58 1005.35 1005.22 1005.18 1005.22 1005.33 1005.51 1005.75 1006.04 1006.37 1006.75 1007.15 1007.58 1008.03 1008.47 1008.91 1009.33 1009.70 1010.03 1010.27 1010.43 1010.49 1010.44 1010.28 1010.00 1009.61 1009.14 1008.59 1007.99 1007.38 1006.78 1006.21 1005.69
Thickness
5757 5741 5732 5738 5743 5746 5743 5735 5729 5732 5739 5729 5720 5717 5718 5721 5718 5717 5716 5717 5718 5719 5723 5724 5723 5721 5718 5716 5714 5712 5709 5706 5703 5700 5697 5694 5691 5689 5689 5688 5687 5686 5686 5685
5745 5738 5754 5759 5756 5751 5745 5735 5730 5729 5735 5724 5714 5713 5716 5715 5713 5714 5714 5714 5716 5717 5719 5720 5720 5718 5715 5713 5710 5707 5703 5701 5698 5694 5690 5687 5684 5682 5680 5679 5679 5678 5678 5677
5744 5754 5769 5762 5755 5748 5744 5737 5732 5724 5722 5719 5713 5707 5708 5711 5712 5714 5716 5717 5718 5719 5718 5718 5718 5716 5714 5711 5708 5706 5701 5697 5693 5689 5685 5681 5677 5675 5672 5671 5670 5670 5669 5669
5753 5764 5765 5760 5755 5751 5737 5746 5741 5728 5712 5696 5701 5687 5701 5704 5707 5711 5715 5717 5720 5722 5722 5720 5719 5717 5715 5713 5710 5705 5700 5695 5690 5686 5680 5675 5670 5665 5664 5662 5661 5661 5661 5661
5753 5763 5761 5755 5757 5756 5740 5745 5736 5722 5707 5694 5693 5685 5692 5702 5704 5711 5717 5721 5724 5725 5724 5722 5721 5720 5718 5715 5709 5704 5698 5692 5687 5682 5676 5670 5665 5660 5658 5655 5654 5653 5653 5652
5760 5770 5767 5762 5761 5758 5747 5735 5722 5708 5697 5683 5686 5681 5686 5699 5708 5716 5722 5726 5727 5727 5727 5725 5724 5721 5717 5713 5708 5701 5694 5688 5683 5677 5671 5665 5660 5656 5653 5650 5648 5646 5645 5644
5747 5759 5767 5767 5750 5748 5739 5715 5691 5687 5676 5679 5688 5684 5690 5714 5721 5722 5725 5727 5729 5729 5726 5723 5721 5718 5714 5709 5704 5698 5691 5684 5679 5673 5668 5663 5658 5653 5649 5646 5643 5641 5638 5637
5732 5730 5757 5763 5753 5739 5732 5718 5691 5682 5676 5679 5688 5685 5704 5727 5731 5731 5731 5730 5730 5728 5726 5723 5720 5716 5712 5707 5701 5693 5687 5681 5675 5670 5665 5660 5656 5651 5647 5644 5640 5636 5633 5631
5731 5734 5761 5767 5765 5750 5728 5715 5711 5688 5682 5676 5683 5694 5714 5731 5730 5730 5730 5729 5727 5727 5725 5721 5718 5713 5708 5702 5696 5689 5683 5677 5672 5667 5662 5657 5653 5648 5644 5641 5636 5632 5629 5626
5743 5733 5750 5761 5763 5753 5742 5718 5698 5686 5673 5672 5683 5688 5695 5718 5724 5728 5727 5726 5725 5724 5721 5717 5713 5708 5702 5696 5690 5684 5679 5673 5669 5664 5659 5655 5650 5646 5641 5636 5632 5628 5624 5620
5744 5728 5736 5746 5745 5740 5734 5718 5697 5682 5682 5670 5668 5684 5718 5722 5727 5726 5726 5725 5722 5718 5715 5711 5706 5701 5695 5690 5684 5679 5675 5670 5665 5661 5656 5651 5646 5642 5636 5631 5627 5623 5618 5614
5737 5720 5715 5729 5745 5749 5744 5731 5705 5695 5685 5675 5672 5688 5731 5728 5727 5726 5724 5722 5718 5714 5710 5705 5699 5694 5689 5684 5680 5676 5672 5667 5663 5659 5653 5648 5642 5637 5631 5627 5623 5618 5613 5608
5734 5717 5702 5707 5717 5734 5734 5729 5713 5696 5681 5670 5672 5695 5729 5727 5726 5723 5721 5718 5713 5709 5704 5698 5693 5688 5684 5681 5677 5673 5669 5665 5661 5655 5649 5644 5638 5632 5627 5622 5617 5612 5607 5602
5740 5716 5705 5700 5706 5722 5723 5727 5713 5702 5686 5678 5684 5700 5719 5722 5720 5719 5717 5713 5708 5703 5698 5693 5688 5684 5681 5677 5673 5669 5666 5662 5657 5651 5645 5639 5634 5628 5623 5617 5612 5606 5601 5596
5740 5721 5719 5718 5724 5723 5722 5725 5720 5708 5705 5696 5703 5702 5716 5719 5718 5717 5714 5709 5704 5700 5696 5692 5687 5682 5678 5674 5670 5666 5662 5658 5653 5647 5641 5636 5630 5624 5618 5612 5607 5601 5595 5590
5734 5725 5723 5722 5727 5723 5721 5727 5726 5720 5715 5709 5710 5710 5725 5723 5718 5714 5710 5706 5701 5698 5695 5691 5687 5682 5677 5673 5668 5664 5659 5655 5649 5642 5637 5632 5625 5619 5613 5607 5601 5595 5590 5584
5723 5719 5710 5705 5715 5720 5709 5727 5729 5727 5725 5716 5709 5718 5726 5719 5713 5711 5709 5704 5700 5697 5694 5690 5686 5681 5677 5671 5666 5660 5656 5650 5644 5638 5632 5627 5620 5613 5607 5601 5595 5589 5584 5578
5720 5711 5700 5698 5708 5698 5714 5737 5735 5729 5729 5725 5723 5724 5721 5720 5718 5716 5711 5705 5700 5698 5694 5690 5686 5681 5676 5670 5663 5657 5651 5645 5639 5633 5627 5621 5614 5608 5601 5594 5588 5583 5577 5571
5725 5712 5695 5687 5690 5698 5719 5736 5735 5726 5725 5732 5726 5726 5721 5716 5713 5711 5712 5707 5704 5701 5697 5693 5688 5681 5674 5667 5660 5653 5646 5640 5633 5627 5621 5615 5608 5602 5595 5588 5582 5576 5570 5565
5717 5712 5697 5685 5687 5686 5714 5740 5742 5731 5716 5733 5727 5722 5714 5707 5695 5705 5717 5710 5705 5701 5697 5692 5685 5677 5669 5663 5655 5647 5641 5634 5628 5622 5616 5609 5602 5595 5588 5582 5576 5570 5564 5559
5709 5701 5694 5685 5682 5694 5727 5738 5735 5707 5709 5737 5729 5723 5712 5708 5715 5721 5720 5712 5708 5703 5697 5690 5681 5673 5667 5659 5650 5642 5635 5629 5623 5617 5610 5603 5596 5589 5582 5576 5570 5564 5559 5554
5704 5696 5689 5678 5679 5693 5735 5729 5719 5722 5738 5739 5733 5728 5720 5722 5723 5718 5715 5710 5706 5701 5695 5686 5677 5670 5663 5654 5645 5638 5631 5625 5618 5610 5604 5597 5590 5582 5578 5570 5564 5559 5553 5549
5701 5702 5696 5693 5701 5725 5732 5730 5736 5737 5733 5737 5734 5733 5727 5722 5718 5715 5711 5708 5704 5699 5692 5683 5674 5666 5658 5649 5640 5633 5627 5619 5611 5603 5596 5590 5583 5576 5569 5564 5559 5554 5549 5545
5709 5708 5699 5696 5709 5723 5728 5731 5735 5736 5734 5739 5738 5735 5728 5721 5721 5716 5711 5707 5702 5696 5688 5679 5669 5660 5653 5644 5636 5630 5623 5614 5605 5597 5590 5583 5576 5570 5564 5559 5554 5550 5547 5543
5707 5703 5693 5694 5708 5715 5727 5732 5735 5737 5737 5736 5736 5733 5728 5723 5720 5716 5712 5707 5702 5694 5684 5674 5665 5656 5649 5640 5632 5625 5616 5607 5598 5590 5583 5576 5570 5564 5559 5555 5551 5548 5545 5540
5698 5695 5690 5693 5710 5706 5713 5724 5728 5728 5730 5730 5728 5727 5726 5721 5718 5715 5710 5705 5697 5688 5678 5668 5660 5652 5644 5635 5627 5620 5611 5602 5592 5584 5577 5570 5564 5559 5555 5552 5550 5548 5543 5540